Location: ????????
(60.7764°N, 46.9549°E)
Time: 04:45:20
(UTC+00:00)

Daily predictions for brighter satellites

Satellite Brightness Start Highest point End
(mag) Time Altitude Azimuth Time Altitude Azimuth Time Altitude Azimuth
CZ-2D R/B 4.3 00:02:21 10° NNE 00:03:44 18° N 00:03:44 18° N
NOSS 3-1 (A) 4.2 00:11:07 53° ENE 00:11:07 53° ENE 00:16:35 10° ENE
USA 215 4.1 00:11:13 10° ESE 00:15:19 40° ESE 00:15:19 40° ESE
Cosmos 1844 Rocket 3.8 00:24:13 41° ENE 00:24:13 41° ENE 00:28:35 10° ESE
Resurs 1-4 Rocket 4.2 00:18:43 10° N 00:20:13 18° N 00:20:13 18° N
Cosmos 1943 Rocket 3.6 00:37:12 29° N 00:37:12 29° N 00:41:00 10° NE
Cosmos 2341 Rocket 4.4 00:31:43 10° N 00:37:56 59° ENE 00:44:05 10° SSE
GEOS 3 Rocket 4.5 00:36:36 10° ENE 00:40:21 47° ENE 00:40:21 47° ENE
ATLAS 2AS CENTAUR R/B 4.4 00:43:07 19° SSE 00:47:33 32° ESE 00:54:18 10° ENE
ADEOS II 3.8 00:47:38 10° NNE 00:49:53 25° N 00:49:53 25° N
Cosmos 2278 4.3 00:56:00 52° ESE 00:56:01 52° ESE 01:01:33 10° NE
Cosmos 1867 4.1 00:57:59 57° ENE 00:57:59 57° ENE 01:02:31 10° ESE
Lacrosse 5 rocket 3.3 01:05:55 27° ESE 01:05:55 27° ESE 01:08:06 10° ESE
CZ-2C R/B 3.3 00:59:08 10° NNE 01:04:01 48° E 01:04:43 45° SE
Cosmos 1452 Rocket 4.4 01:04:07 44° NNE 01:04:49 47° NE 01:09:54 10° ESE
SL-16 R/B 4.4 01:00:57 10° SSE 01:05:08 22° ESE 01:09:20 10° NE
Cosmos 2369 3.9 01:07:56 71° ESE 01:07:56 71° ESE 01:13:25 10° NE
MSX 3.9 01:04:23 10° NNE 01:10:11 74° ESE 01:10:30 72° SE
Cosmos 1980 Rocket 2.8 01:10:36 47° SSE 01:11:26 51° ESE 01:16:55 10° NE
Cosmos 1844 4.0 01:12:48 57° N 01:13:22 61° NE 01:18:54 10° ESE
Cosmos 1697 Rocket 2.7 01:16:11 76° ESE 01:16:11 76° ESE 01:21:39 10° NE
NOSS 3-1 (C) 3.6 01:17:35 66° NW 01:18:22 72° N 01:25:59 10° E
ARIANE 5 R/B 4.1 01:16:41 10° N 01:19:00 24° N 01:19:00 24° N
Lacrosse 4 Rocket 3.1 01:22:36 29° NNE 01:22:36 29° NNE 01:25:43 10° ENE
Cosmos 2369 Rocket 3.4 01:22:06 30° NNW 01:22:27 30° N 01:27:29 10° NE
Cosmos 2366 rocket 4.2 01:19:49 10° NNW 01:26:13 71° ENE 01:32:34 10° SSE
CZ-4B R/B 4.2 01:22:57 10° NNE 01:27:03 40° E 01:28:09 33° SE
Cosmos 1953 3.8 01:31:06 33° NNE 01:31:06 33° NNE 01:33:28 10° NNE
Cosmos 1420 Rocket 4.2 01:28:59 62° N 01:29:44 72° NE 01:35:03 10° SE
Cosmos 962 Rocket 4.3 01:25:01 10° NNW 01:31:18 73° W 01:37:37 10° S
Cosmos 773 Rocket 3.9 01:34:07 83° N 01:34:07 83° N 01:39:13 10° NNE
ATLAS 3B R/B 3.5 01:37:08 34° SSW 01:37:08 34° SSW 01:41:33 10° SSE
IDEFIX/ARIANE 42P 3.0 01:32:06 10° NNE 01:36:14 49° NNW 01:36:14 49° NNW
Cosmos 1656 3.7 01:39:37 62° NNW 01:39:37 62° NNW 01:44:56 10° NE
NOSS 2-3 (E) 4.2 01:39:37 66° NW 01:40:08 70° N 01:46:47 10° ENE
Aureole 3 4.2 01:43:06 63° NW 01:43:06 63° NW 01:47:58 10° N
ADEOS Rocket 3.6 01:38:53 10° SE 01:44:21 52° ENE 01:50:21 10° NNW
CZ-2D R/B 4.1 01:43:07 10° N 01:45:03 16° NNW 01:45:03 16° NNW
NOSS 2-2 (C) 3.9 01:46:53 58° SE 01:46:53 58° SE 01:51:25 10° ENE
CZ-4B R/B 4.4 01:46:27 10° NNE 01:49:29 52° NE 01:49:29 52° NE
Cosmos 2278 Rocket 3.0 01:47:46 29° NNW 01:50:16 48° NNE 01:55:45 10° ESE
COSMOS 2455 3.1 01:48:28 38° SSW 01:50:44 66° SE 01:56:43 10° NE
PAYLOAD A 3.7 01:46:42 10° NNE 01:51:08 74° NNW 01:51:08 74° NNW
CENTAUR R/B 3.9 01:53:25 31° SW 01:53:25 31° SW 01:59:16 10° S
NOSS 2-3 (D) 4.2 01:52:46 58° NW 01:53:42 69° N 02:00:21 10° E
USA 229 DEB 3.8 01:52:12 46° WNW 01:54:28 73° N 02:01:48 10° E
USA 229 3.8 01:52:18 46° WNW 01:54:33 73° N 02:01:53 10° E
Lacrosse 5 4.1 01:51:27 11° S 01:54:51 20° SE 01:58:30 10° E
NOSS 2-2 (E) 3.6 01:55:20 70° SSE 01:55:24 70° SSE 02:00:23 10° ENE
Cosmos 2263 Rocket 4.3 02:00:44 12° SSW 02:00:44 12° SSW 02:01:15 10° S
SL-8 Rocket 3.8 01:52:39 10° NNW 01:58:51 69° W 02:04:59 10° S
NOSS 3-1 (A) 3.8 01:58:32 46° WNW 02:00:40 72° N 02:08:20 10° E
USA 215 3.6 01:55:13 10° SE 02:01:27 45° SSW 02:02:40 41° WSW
Resurs 1-4 Rocket 4.1 01:59:21 10° N 02:01:18 14° NNW 02:01:18 14° NNW
NOSS 3-4 (A) 4.4 01:58:14 16° SSW 02:02:47 44° SE 02:08:57 10° ENE
NOSS 3-4 (C) 4.4 01:58:18 16° SSW 02:02:53 44° SE 02:09:02 10° ENE
Cosmos 1484 Rocket 3.1 02:00:00 10° NNE 02:03:43 61° ESE 02:04:55 39° SSE
Meteor 1-11 4.1 01:58:24 10° NNW 02:04:00 72° WSW 02:09:38 10° S
Cosmos 2322 Rocket 3.4 01:59:40 10° S 02:04:56 41° ESE 02:10:15 10° NE
Cosmos 2056 Rocket 4.0 02:05:53 44° SW 02:05:53 44° SW 02:10:12 10° S
Cosmos 1726 2.8 02:08:23 45° NNE 02:08:23 45° NNE 02:11:01 10° NNE
Cosmos 1844 Rocket 2.6 02:05:53 48° NW 02:07:28 73° SW 02:13:06 10° SSE
Meteor PRIRODA 3.9 02:05:29 10° NNE 02:09:14 67° ESE 02:10:27 40° S
ADEOS 3.6 02:07:57 10° NNE 02:13:03 54° WNW 02:13:37 52° W
Nadezhda 1 Rocket 4.0 02:12:10 43° WSW 02:13:44 54° WNW 02:19:46 10° N
Cosmos 2344 3.7 02:11:18 29° SW 02:15:44 80° SSE 02:25:01 10° ENE
Cosmos 923 Rocket 4.1 02:15:01 23° SSW 02:18:22 81° ESE 02:23:44 10° NE
GEOS 3 Rocket 3.7 02:14:46 10° ENE 02:19:56 63° NNW 02:21:28 44° WNW
Cosmos 2181 Rocket 4.0 02:13:55 10° S 02:20:14 89° ESE 02:26:42 10° NNE
Cosmos 1943 Rocket 3.5 02:18:43 22° NNW 02:21:14 31° NNE 02:26:08 10° ENE
Cosmos 2341 Rocket 4.3 02:17:38 10° NNW 02:23:27 41° W 02:29:13 10° SSW
Meteor 1-31 Rocket 2.8 02:20:09 10° NNE 02:23:32 58° NNW 02:23:32 58° NNW
FENGYUN 3A 4.0 02:21:47 10° NNE 02:27:12 67° ESE 02:32:37 10° S
Cosmos 158 Rocket 4.5 02:22:35 10° SSW 02:27:23 57° ESE 02:32:21 10° NE
NOSS 2-3 (C) 4.5 02:26:56 38° WNW 02:29:10 70° N 02:36:09 10° E
H-2A R/B 2.3 02:25:34 10° NNE 02:29:27 60° WNW 02:29:35 59° WNW
ADEOS II 3.8 02:28:02 10° N 02:30:49 17° NNW 02:30:49 17° NNW
Cosmos 1821 Rocket 4.0 02:26:49 10° NNW 02:33:03 84° ENE 02:39:11 10° SSE
Cosmos 2360 4.2 02:31:48 36° WSW 02:34:08 63° NW 02:39:51 10° NE
Cosmos 1076 Rocket 3.6 02:29:57 10° NNW 02:34:22 80° ENE 02:38:45 10° SSE
ALOS 2.4 02:29:57 10° NNE 02:34:40 78° ESE 02:39:21 10° SSW
Cosmos 1538 Rocket 4.2 02:33:43 39° W 02:35:18 53° NW 02:40:28 10° NNE
Okean O Rocket 2.6 02:31:28 10° NNE 02:35:49 48° E 02:40:07 10° S
ATLAS 2AS CENTAUR R/B 3.3 02:30:36 14° SW 02:37:43 72° SE 02:45:31 10° ENE
Cosmos 2278 3.8 02:37:55 34° W 02:40:13 57° NW 02:45:53 10° NE
Cosmos 1867 3.7 02:38:40 36° WNW 02:40:43 58° SW 02:46:03 10° SSE
Cosmos 332 Rocket 3.8 02:38:37 21° NNW 02:41:50 79° NE 02:46:39 10° SE
Cosmos 371 Rocket 3.2 02:38:52 23° NNW 02:41:56 89° SW 02:46:47 10° SSE
CZ-2C R/B 2.8 02:37:31 10° N 02:42:17 45° WNW 02:44:06 32° WSW
Lacrosse 5 rocket 2.4 02:41:33 32° SW 02:42:28 35° SSW 02:46:32 10° SE
CZ-2C R/B 4.2 02:37:43 10° ESE 02:42:31 34° NE 02:47:25 10° N
USA 32 4.5 02:39:01 10° NNW 02:43:48 37° W 02:48:34 10° SSW
Cosmos 2058 Rocket 2.9 02:39:56 10° SSW 02:44:18 78° WNW 02:48:42 10° NNE
Meteor 2-12 Rocket 4.4 02:38:53 10° NNW 02:44:55 64° W 02:50:58 10° S
Cosmos 2218 Rocket 4.2 02:39:07 10° NNW 02:45:10 45° W 02:51:08 10° SSW
Cosmos 1340 Rocket 4.5 02:43:01 10° SSE 02:46:36 35° E 02:50:13 10° NNE
Cosmos 1452 Rocket 3.6 02:44:27 27° NW 02:47:07 54° WSW 02:52:12 10° S
Cosmos 1726 Rocket 3.6 02:44:15 20° SW 02:47:07 55° WNW 02:51:28 10° N
Cosmos 2228 3.2 02:45:30 29° SW 02:47:26 50° WNW 02:51:43 10° N
Cosmos 1110 Rocket 4.0 02:43:27 17° NNW 02:47:34 84° NE 02:52:55 10° SE
Cosmos 1606 Rocket 3.7 02:46:24 33° WSW 02:47:53 47° WNW 02:52:09 10° N
Cosmos 2151 3.8 02:43:57 10° N 02:48:11 52° ENE 02:52:24 10° SSE
SL-16 R/B 2.4 02:42:47 10° SSW 02:48:26 74° SE 02:54:08 10° NE
Cosmos 2360 Rocket 3.4 02:43:43 10° S 02:49:03 44° ESE 02:54:26 10° NE
MSX 4.4 02:46:26 10° NNE 02:51:37 35° NW 02:53:34 28° W
Cosmos 2369 4.1 02:49:53 30° W 02:52:16 46° NNW 02:57:48 10° NE
CZ-4B R/B 3.7 02:48:25 10° NNE 02:53:58 63° ESE 02:59:22 10° S
PSLV R/B 3.6 02:51:05 10° NNE 02:54:52 65° WNW 02:58:34 10° SSW
Cosmos 1980 Rocket 2.3 02:52:23 26° WSW 02:55:30 57° NW 03:01:06 10° NE
COSMO-SKYMED 1 4.4 02:52:04 10° SSW 02:53:07 16° SW 02:53:07 16° SW
SJ-12 3.8 02:52:50 10° NNE 02:56:55 69° WNW 03:00:58 10° SSW
Cosmos 1844 3.9 02:54:42 26° WNW 02:57:29 46° WSW 03:02:45 10° S
NOSS 2-2 (D) 3.5 02:56:29 33° WSW 02:58:21 79° NNW 03:03:33 10° ENE
ARIANE 5 R/B 4.3 02:56:39 10° N 02:59:20 14° NNW 02:59:21 14° NNW
H-2A R/B 4.0 02:56:37 10° NNE 03:00:24 44° E 03:04:08 10° S
Cosmos 1697 Rocket 3.1 02:57:55 28° W 03:00:25 43° NNW 03:05:49 10° NE
Uosat 12 SS-18 rocket 4.1 02:58:15 28° WNW 03:00:50 82° SSW 03:05:14 10° SE
Cosmos 1300 2.9 02:57:12 10° S 03:01:00 72° ESE 03:04:50 10° NNE
Lacrosse 4 Rocket 2.3 02:58:55 22° NW 03:01:18 44° NNE 03:05:33 10° E
Cosmos 2058 2.8 02:57:46 10° NNW 03:01:59 71° W 03:06:11 10° S
CZ-4B R/B 3.4 02:58:06 10° N 03:02:12 41° WNW 03:04:17 24° WSW
Cosmos 1934 Rocket 4.0 02:57:37 10° NNW 03:03:47 87° ENE 03:09:59 10° SSE
Cosmos 1680 Rocket 3.5 02:59:51 10° SW 03:05:10 69° NW 03:10:30 10° NNE
Cosmos 1953 3.6 03:06:48 24° NW 03:06:48 24° NW 03:09:36 10° N
Cosmos 2369 Rocket 3.3 03:03:52 16° NW 03:07:57 36° NNE 03:13:12 10° E
NOSS 3-1 (C) 3.9 03:04:58 22° WNW 03:09:45 87° NNE 03:17:49 10° ESE
Meteor 1-16 Rocket 4.5 03:05:13 10° SW 03:10:53 49° WNW 03:16:26 10° NNE
Cosmos 2239 Rocket 4.4 03:04:39 10° NNW 03:10:56 69° W 03:17:06 10° S
NOSS 8 (H) 4.4 03:10:25 35° W 03:11:38 66° NNW 03:15:27 10° ENE
METEOR-M 4.1 03:06:41 10° NNE 03:12:02 70° WNW 03:17:22 10° SSW
NOAA 6 4.1 03:07:27 10° NNE 03:12:42 87° ESE 03:17:55 10° SSW
Cosmos 1455 4.4 03:10:01 10° SSE 03:13:23 29° E 03:16:45 10° NNE
Meteor 2-10 4.3 03:08:47 10° SW 03:13:53 44° WNW 03:18:51 10° N
In-Cosmos 22 Rocket 4.1 03:09:50 10° NNW 03:15:09 62° W 03:20:23 10° S
IDEFIX/ARIANE 42P 3.9 03:12:19 10° N 03:16:06 20° NW 03:17:03 19° NW
Cosmos 1437 4.2 03:18:07 20° SW 03:18:07 20° SW 03:19:35 10° SSW
Helios 1A Rocket 3.1 03:14:10 10° NNE 03:18:20 79° ESE 03:22:29 10° SSW
Cosmos 1908 3.8 03:18:40 10° SW 03:22:17 35° WNW 03:25:55 10° N
SJ-7 4.4 03:18:18 10° NNE 03:22:30 85° WNW 03:26:43 10° SSW
ATLAS 3B R/B 4.3 03:24:25 13° WSW 03:24:25 13° WSW 03:27:10 10° SW
Cosmos 2112 Rocket 4.1 03:19:02 10° SW 03:24:21 61° NW 03:29:41 10° NNE
Cosmos 1766 Rocket 3.5 03:21:47 10° NNW 03:26:11 87° ENE 03:30:31 10° SSE
Cosmos 304 Rocket 3.7 03:22:01 12° NW 03:26:28 81° WSW 03:31:18 10° SSE
PAYLOAD B 4.2 03:20:51 10° NNE 03:26:29 73° WNW 03:32:04 10° SSW
Cosmos 1535 Rocket 4.5 03:20:38 10° NNW 03:27:02 73° W 03:33:20 10° S
CZ-4 R/B 4.0 03:24:37 10° NE 03:28:12 26° E 03:31:44 10° SSE
Cosmos 1331 Rocket 4.1 03:23:41 12° NW 03:28:39 64° WSW 03:33:53 10° SSE
Cosmos 1892 2.8 03:25:35 10° NNW 03:29:21 55° W 03:33:04 10° S
SMAP 3.5 03:24:52 10° NNE 03:29:32 66° ESE 03:34:10 10° S
ADEOS Rocket 3.2 03:24:43 10° S 03:30:07 46° W 03:36:00 10° NNW
Cosmos-2242 4.0 03:27:40 10° S 03:31:56 52° E 03:36:12 10° NNE
Mayak 1.5 03:33:14 10° ENE 03:34:34 11° NE 03:35:54 10° NNE
Cosmos 2278 Rocket 2.2 03:29:36 13° NW 03:34:40 67° WSW 03:40:17 10° SSE
Cosmos 1302 Rocket 4.0 03:30:11 10° NW 03:35:26 86° WSW 03:40:39 10° SSE
COSMOS 2455 3.0 03:31:38 14° WSW 03:36:54 60° NNW 03:42:53 10° ENE
Lacrosse 5 2.9 03:32:07 10° SW 03:36:55 44° SSE 03:41:44 10° E
NOSS 2-2 (C) 3.8 03:34:16 18° W 03:37:22 68° N 03:42:46 10° ENE
Cosmos 1484 Rocket 3.8 03:34:50 10° N 03:37:55 24° WNW 03:40:17 14° WSW
Cosmos 1408 Rocket 3.7 03:34:39 10° NNW 03:39:01 78° ENE 03:43:19 10° SSE
Cosmos 1825 2.1 03:39:06 10° NNW 03:42:55 86° WSW 03:46:41 10° S
Cosmos 1726 3.6 03:42:55 17° WNW 03:43:06 17° NW 03:45:37 10° NNW
Alouette 2 Rocket 3.0 03:40:16 10° SSW 03:43:56 76° WNW 03:47:40 10° NNE
Cosmos 1408 2.6 03:42:01 10° NNW 03:45:43 62° W 03:49:22 10° S
USA 229 DEB 3.9 03:39:38 15° WNW 03:45:44 80° SSW 03:53:10 10° SE
USA 229 3.9 03:39:44 15° WNW 03:45:49 80° SSW 03:53:15 10° SE
NOSS 2-2 (E) 3.9 03:42:42 16° W 03:46:09 66° N 03:51:49 10° ENE
SL-24 R/B 4.3 03:43:05 10° SSE 03:46:49 62° ENE 03:50:56 10° NNW
CZ-4B DEB 4.4 03:42:58 10° NNE 03:48:22 51° WNW 03:53:41 10° SW
RESURS DK-1 2.3 03:44:29 10° SW 03:48:39 78° NW 03:52:51 10° NE
Cosmos 2322 Rocket 2.2 03:43:08 10° SW 03:48:49 68° NW 03:54:33 10° NE
Cosmos 1812 Rocket 3.6 03:44:53 10° SSW 03:49:16 61° WNW 03:53:43 10° N
Cosmos 1844 Rocket 3.9 03:47:34 14° WNW 03:50:33 21° WSW 03:54:40 10° SSW
NOSS 3-1 (A) 3.9 03:45:57 14° WNW 03:52:04 88° SSW 04:00:10 10° ESE
Cosmos 2297 3.8 03:47:05 10° NW 03:52:46 78° NE 03:58:25 10° SE
NOSS 3-4 (A) 3.6 03:47:05 10° WSW 03:53:19 88° NNW 04:00:10 10° ENE
NOSS 3-4 (C) 3.6 03:47:11 10° WSW 03:53:25 88° NNW 04:00:16 10° ENE
OPS 8737 4.3 03:52:25 17° WNW 03:54:35 63° NNE 03:57:45 10° E
Iridium 96 4.1 03:53:21 10° SW 03:55:29 31° WNW 03:57:37 10° N
GEOS 3 Rocket 3.9 03:52:36 10° E 03:57:42 57° N 04:02:34 12° WNW
Meteor 1-31 Rocket 4.5 03:55:32 10° NNW 03:57:46 15° NW 03:58:56 13° WNW
Meteor 2-1 Rocket 4.2 03:53:37 10° SSW 03:59:12 82° WNW 04:04:46 10° NNE
H-2A R/B 4.0 04:02:02 10° N 04:04:18 15° NW 04:06:10 11° WNW
Cosmos 1943 Rocket 2.7 04:00:35 10° NW 04:06:05 54° NE 04:11:30 10° ESE
FENGYUN 3A 4.2 04:02:25 10° N 04:07:19 36° NW 04:12:12 10° WSW
Aureole 2 Rocket 4.4 04:06:30 10° N 04:07:47 13° NNE 04:09:03 10° ENE
Cosmos 158 Rocket 4.3 04:04:29 10° WSW 04:09:12 42° NW 04:14:03 10° NNE
Meteor 2-10 Rocket 4.1 04:04:26 10° S 04:10:07 70° ESE 04:15:38 10° NNE
CZ-2C R/B 4.2 04:07:02 10° SSW 04:11:14 37° W 04:15:26 10° NNW
ALOS 3.2 04:07:48 10° N 04:11:44 27° NW 04:15:38 10° WSW
Okean O Rocket 2.1 04:08:00 10° N 04:12:08 37° WNW 04:16:14 10° SW
Cosmos 2333 Rocket 2.9 04:07:37 10° SSW 04:13:18 62° ESE 04:19:00 10° NE
Okean 3 Rocket 4.3 04:11:08 10° NNW 04:15:19 36° W 04:19:28 10° SSW
MOS 1 Rocket 3.7 04:11:02 10° SSE 04:16:21 79° ENE 04:21:26 10° NNW
Cosmos 1500 Rocket 3.7 04:11:51 10° NNW 04:16:22 87° E 04:20:51 10° SSE
Meteor 2-3 Rocket 3.7 04:13:31 10° NNW 04:19:08 75° WSW 04:24:47 10° S
CZ-2C R/B 4.1 04:16:37 10° N 04:19:31 16° NW 04:22:28 10° WNW
Cosmos 1743 Rocket 3.5 04:15:48 10° NNW 04:20:15 83° WSW 04:24:37 10° S
Cosmos 1939 Rocket 4.3 04:16:36 10° NNE 04:20:36 45° E 04:24:36 10° S
Lacrosse 5 rocket 3.6 04:18:15 10° W 04:20:41 14° SW 04:23:05 10° SSW
Envisat 3.0 04:16:47 10° NNE 04:21:55 82° WNW 04:27:01 10° SSW
AQUARIUS 4.2 04:17:54 10° NNE 04:22:20 58° WNW 04:26:46 10° SW
CZ-2C R/B 2.7 04:17:06 10° S 04:22:30 74° WSW 04:28:03 10° NNW
Cosmos 1340 Rocket 3.2 04:19:23 10° SW 04:23:04 38° WNW 04:26:48 10° N
Cosmos 2058 Rocket 4.4 04:19:58 10° W 04:23:04 19° NW 04:26:11 10° N
Okean-O 2.7 04:18:57 10° NNE 04:23:26 89° W 04:27:53 10° SSW
Cosmos 2151 3.9 04:21:34 10° NNW 04:25:18 30° W 04:29:03 10° SSW
YAOGAN 6 2.5 04:24:55 10° NNE 04:28:27 66° WNW 04:31:57 10° SSW
ATLAS 2AS CENTAUR R/B 3.1 04:20:52 10° W 04:28:57 76° NNW 04:36:41 10° ENE
Cosmos 1605 Rocket 4.4 04:23:32 10° NNW 04:29:36 46° W 04:35:35 10° SSW
Feng Yun 1-1 Rocket 4.4 04:23:50 10° NNE 04:29:47 72° WNW 04:35:37 10° SSW
Cosmos 2344 4.0 04:22:35 10° W 04:30:34 76° N 04:41:01 10° E
Nadezhda 3 Rocket 4.3 04:26:54 10° SW 04:32:45 42° WNW 04:38:42 10° N
Cosmos 1459 Rocket 4.0 04:26:46 10° NNW 04:32:51 84° W 04:38:56 10° S
SL-16 R/B 2.6 04:27:31 10° WSW 04:32:58 45° NNW 04:38:26 10° NE
Cosmos 2360 Rocket 2.3 04:27:20 10° WSW 04:32:59 63° NW 04:38:39 10° NE
SAR-Lupe-2 4.4 04:30:46 10° SSW 04:34:00 31° W 04:37:15 10° NNW
Cosmos 1842 Rocket 4.2 04:29:41 10° S 04:34:02 63° E 04:38:27 10° NNE
CZ-4B R/B 3.7 04:29:13 10° NNE 04:34:22 39° NW 04:39:24 10° WSW
H-2A R/B 3.5 04:30:59 10° N 04:34:32 33° WNW 04:38:03 10° SW
Cosmos 2219 Rocket 2.5 04:29:45 10° SSW 04:35:26 78° SE 04:41:10 10° NE
